Villahermosa Airport, Mexico

3:14 AM CDT on April 25, 2017 (GMT -0500)
C P A Carlos Rovirosa International

Weather History for MMVA - November, 2012

Change the Weather History Date:

Wednesday, November 28, 2012

  Actual Average Record
Temperature  
Mean Temperature 73 °F -  
Max Temperature 84 °F 82 °F 91 °F (2005)
Min Temperature 62 °F 69 °F 62 °F (2011)
Cooling Degree Days 8    
Growing Degree Days 23 (Base 50)    
Moisture  
Dew Point 65 °F    
Average Humidity 76    
Maximum Humidity 100    
Minimum Humidity 48    
Precipitation  
Precipitation 0.00 in - - ()
Sea Level Pressure  
Sea Level Pressure 30.16 in    
Wind  
Wind Speed 4 mph ()    
Max Wind Speed 12 mph    
Max Gust Speed -    
Visibility 6.8 miles    
Events      
Averages and records for this station are not official NWS values.
T = Trace of Precipitation, MM = Missing Value Source: Averaged Metar Reports

Daily Weather History Graph

Daily Weather History Graph

Search for Another Location

Airport or City:

Trip Planner

Search our weather history database for the weather conditions in past years. The results will help you decide how hot, cold, wet, or windy it might be!

Date:

Astronomy

Nov. 28, 2012 Rise Set
Actual Time 6:24 AM CST 5:33 PM CST
Civil Twilight 6:01 AM CST 5:57 PM CST
Nautical Twilight 5:34 AM CST 6:24 PM CST
Astronomical Twilight 5:08 AM CST 6:50 PM CST
Moon 5:49 PM CST (11/28) 6:22 AM CST (11/28)
Length of Visible Light 11h 55m
Length of Day
11h 09m
Full, 100% of the Moon is Illuminated
Nov 28
Full
Dec 6
Last Quarter
Dec 13
New
Dec 19
First Quarter
Dec 28
Full

Hourly Weather History & Observations

Time (CST) Temp. Heat Index Dew Point Humidity Pressure Visibility Wind Dir Wind Speed Gust Speed Precip Events Conditions
4:00 AM 71.6 °F - 69.8 °F 94% 30.12 in 7.0 mi South 5.8 mph - N/A   Scattered Clouds
4:40 AM 69.8 °F - 69.8 °F 100% 30.13 in 7.0 mi Calm Calm - N/A   Scattered Clouds
5:40 AM 66.2 °F - 66.2 °F 100% 30.17 in 5.0 mi Calm Calm - N/A   Scattered Clouds
6:40 AM 66.2 °F - 66.2 °F 100% 30.16 in 5.0 mi Calm Calm - N/A   Scattered Clouds
7:40 AM 69.8 °F - 69.8 °F 100% 30.17 in 6.0 mi Calm Calm - N/A   Scattered Clouds
8:40 AM 77.0 °F - 69.8 °F 78% 30.22 in 7.0 mi East 9.2 mph - N/A   Scattered Clouds
9:40 AM 78.8 °F - 68.0 °F 69% 30.21 in 7.0 mi East 6.9 mph - N/A   Scattered Clouds
10:40 AM 82.4 °F 84.6 °F 66.2 °F 58% 30.20 in 7.0 mi ENE 10.4 mph - N/A   Mostly Cloudy
11:40 AM 82.4 °F 84.6 °F 66.2 °F 58% 30.22 in 7.0 mi ENE 6.9 mph - N/A   Scattered Clouds
12:40 PM 84.2 °F 85.0 °F 62.6 °F 48% 30.15 in 7.0 mi ENE 9.2 mph - N/A   Mostly Cloudy
1:40 PM 84.2 °F 85.0 °F 62.6 °F 48% 30.11 in 7.0 mi ENE 11.5 mph - N/A   Mostly Cloudy
2:41 PM 84.2 °F 85.6 °F 64.4 °F 51% 30.14 in 7.0 mi NNE 9.2 mph - N/A   Scattered Clouds
3:43 PM 82.4 °F 83.4 °F 62.6 °F 51% 30.08 in 7.0 mi North 4.6 mph - N/A   Mostly Cloudy
4:44 PM 80.6 °F 81.8 °F 62.6 °F 54% 30.09 in 7.0 mi NNE 6.9 mph - N/A   Scattered Clouds
5:43 PM 77.0 °F - 64.4 °F 65% 30.14 in 7.0 mi North 4.6 mph - N/A   Partly Cloudy
6:45 PM 73.4 °F - 66.2 °F 78% 30.12 in 7.0 mi Calm Calm - N/A   Partly Cloudy
7:44 PM 71.6 °F - 66.2 °F 83% 30.14 in 7.0 mi Calm Calm - N/A   Partly Cloudy
8:43 PM 68.0 °F - 64.4 °F 88% 30.20 in 7.0 mi Calm Calm - N/A   Partly Cloudy
9:43 PM 64.4 °F - 62.6 °F 94% 30.16 in 7.0 mi Calm Calm - N/A   Clear
10:43 PM 62.6 °F - 60.8 °F 94% 30.16 in 7.0 mi Calm Calm - N/A   Clear
11:41 PM 62.6 °F - 60.8 °F 94% 30.19 in 7.0 mi Calm Calm - N/A   Clear